Content
SEND FEEDBACK

Daily
Averages
Monthly
Summary
United States of America

ASPEN, COLORADO


Home > North America > United States > Colorado
Elevation: 7773 feet     Latitude: 39 13N     Longitude: 106 52W

WEATHER
 
SELECT A DAY
Number of Records: 188,489;   Date Range: 1/1/95 - 10/23/14
 
SHARE

PRINT THIS DATA

[ ← Previous Day ]
WEATHER ALMANAC - JULY 20, 2014
[ Next Day → ]
[ °C ]   °F
Weather ElementAverageHighLow
Temperature66.1 °F84 °F (11:53 am)52 °F (5:53 am)
Dewpoint41.6 °F52 °F (5:53 pm)34 °F (12:53 pm)
Humidity46.1 %81 % (5:53 pm)17 % (1:53 pm)
Barometer30.01 in30.40 in (5:14 pm)29.86 in (11:53 am)
Wind Speed10 mph27.6 mph (5:14 pm)
Wind Gust40.3 mph (2:21 pm)
Weather ElementAverage
Visibility9.7 mi
Wind DirectionSSE (168.2 °)

Weather ElementTotal
Precipitation0.07 in
Cooling Degree Days3 (Base 65)
Growing Degree Days18 (Base 50)
Averaged from 28 records on July 20, 2014
WEATHER CONDITIONS BREAKOUT
WIND DIRECTION BREAKOUT
WEATHER BY HOUR - JULY 20, 2014
[ °C ]   °F
Local TimeTemperatureDewpointHumidityBarometerVisibilityWind DirectionWind SpeedGust SpeedPrecipitationEventsConditions
1:53 AM55.0 °F36.0 °F49 %29.89 in10.0 miSSW (210°)11.5 mphClear
2:53 AM54.0 °F36.0 °F51 %29.88 in10.0 miSSW (210°)11.5 mphClear
3:53 AM55.0 °F35.1 °F47 %29.88 in10.0 miSSW (200°)6.9 mphClear
4:53 AM53.1 °F36.0 °F52 %29.90 in10.0 miSouth (180°)8.1 mphClear
5:53 AM52.0 °F36.0 °F54 %29.92 in10.0 miSSW (200°)4.6 mphClear
6:53 AM55.0 °F37.0 °F51 %29.92 in10.0 miSSW (210°)6.9 mphClear
7:53 AM61.0 °F37.9 °F42 %29.94 in10.0 miVariable3.5 mphClear
8:53 AM66.0 °F39.9 °F38 %29.93 in10.0 miVariable3.5 mphClear
9:53 AM73.0 °F41.0 °F31 %29.91 in10.0 miNNE (20°)3.5 mphClear
10:53 AM79.0 °F39.0 °F24 %29.89 in10.0 miNNE (30°)4.6 mphClear
11:53 AM84.0 °F36.0 °F18 %29.86 in10.0 miENE (60°)8.1 mphPartly Cloudy
12:15 PM84.0 °F36.0 °F18 %30.29 in10.0 miVariable6.9 mph13.8 mphClear
12:53 PM82.0 °F34.0 °F18 %29.87 in10.0 miVariable6.9 mph13.8 mphScattered Clouds
1:53 PM82.9 °F34.0 °F17 %29.86 in10.0 miNNW (330°)11.5 mph16.1 mphScattered Clouds
2:21 PM79.0 °F37.0 °F22 %30.28 in10.0 miNNW (330°)24.2 mph40.3 mphMostly Cloudy
2:53 PM82.0 °F37.9 °F21 %29.88 in10.0 miNNW (340°)11.5 mph20.7 mphScattered Clouds
3:53 PM77.0 °F37.9 °F24 %29.91 in10.0 miNW (310°)12.7 mph27.6 mph0.00 inRainRain
4:48 PM69.8 °F46.4 °F43 %30.33 in10.0 miSSW (200°)9.2 mph0.01 inThunderstormOvercast
4:53 PM69.1 °F48.0 °F47 %30.00 in10.0 miSouth (180°)13.8 mph0.01 inRain-ThunderstormLight Thunderstorms and Rain
5:07 PM66.0 °F46.9 °F50 %30.38 in10.0 miSouth (180°)25.3 mph35.7 mph0.00 inRainLight Rain
5:14 PM61.0 °F48.9 °F64 %30.40 in6.0 miSouth (180°)27.6 mph40.3 mph0.01 inRain-ThunderstormThunderstorms and Rain
5:53 PM57.9 °F52.0 °F81 %30.13 in6.0 miSSE (160°)11.5 mph0.04 inRain-ThunderstormLight Thunderstorms and Rain
6:53 PM64.0 °F51.1 °F63 %30.04 in10.0 miSouth (170°)13.8 mph0.00 inClear
7:53 PM62.1 °F52.0 °F70 %30.00 in10.0 miSouth (170°)9.2 mphClear
8:53 PM60.1 °F51.1 °F72 %29.99 in10.0 miSSE (160°)8.1 mphClear
9:53 PM57.0 °F48.9 °F74 %29.99 in10.0 miSE (140°)5.8 mphClear
10:53 PM57.0 °F46.9 °F69 %29.96 in10.0 miSSW (200°)5.8 mphClear
11:53 PM53.1 °F46.9 °F80 %29.95 in10.0 miNNW (340°)4.6 mphClear
Hourly data recorded from KASE, located miles away from Aspen, Colorado







STORIES FROM OUR PARTNERS